Date String (YYYY-MM-DD hh:mm:ss) UTC,Instrument flags,Ambient pressure (hPa),Sample flow (lpm),Bypass flow (lpm),Sample temperature (°C),Ambient temperature (°C),ASC tube jacket temperature (°C),LED temperature (°C),Box temperature (°C),Sample RH (%),Span deviation,Mass concentration (μg/m³),Mass concentration (μg/m³),Mass concentration (μg/m³)
DateTimeUTC,F1_M11,P_M11,Q1_M11,Q2_M11,T1_M11,T2_M11,T3_M11,T4_M11,T5_M11,U1_M11,ZSPAN_M11,X2_M11,X0_M11,X1_M11
2022-02-20 23:00:00,,0815.8,5.02,0.00,28.1,27.5,00.0,36.9,29.9,04.0,0000.0,0001.70,0003.25,0001.34
2022-02-20 23:01:00,,0815.8,4.99,0.00,28.1,27.5,00.0,36.9,29.9,04.2,0000.0,0001.68,0003.21,0001.34
2022-02-20 23:02:00,,0815.8,5.02,0.00,28.1,27.5,00.0,37.0,29.9,04.0,0000.0,0001.64,0003.15,0001.31
2022-02-20 23:03:00,,0815.8,5.01,0.00,28.1,27.5,00.0,37.0,29.9,04.0,0000.0,0001.49,0002.84,0001.20
2022-02-20 23:04:00,,0815.8,5.00,0.00,28.1,27.5,00.0,37.0,30.0,04.0,0000.0,0001.32,0002.55,0001.06
2022-02-20 23:05:00,,0815.8,5.01,0.00,28.1,27.5,00.0,37.0,30.0,03.9,0000.0,0001.17,0002.01,0000.91
2022-02-20 23:06:00,,0815.8,5.02,0.00,28.2,27.5,00.0,37.0,30.0,03.9,0000.0,0001.04,0001.77,0000.81
2022-02-20 23:07:00,,0815.8,4.99,0.00,28.2,27.6,00.0,37.0,30.0,03.7,0000.0,0000.88,0001.58,0000.68
2022-02-20 23:08:00,,0815.8,5.01,0.00,28.2,27.6,00.0,37.0,30.0,05.8,0000.0,0000.84,0001.57,0000.65
2022-02-20 23:09:00,,0815.8,4.98,0.00,28.2,27.6,00.0,37.1,30.1,06.5,0000.0,0001.00,0001.81,0000.79
2022-02-20 23:10:00,,0815.8,4.99,0.00,28.2,27.6,00.0,37.1,30.1,06.3,0000.0,0001.24,0002.10,0001.03
2022-02-20 23:11:00,,0815.8,4.99,0.00,28.2,27.6,00.0,37.1,30.1,05.5,0000.0,0001.45,0002.38,0001.19
2022-02-20 23:12:00,,0815.8,5.01,0.00,28.2,27.6,00.0,37.1,30.1,05.8,0000.0,0001.69,0002.73,0001.39
2022-02-20 23:13:00,,0815.8,4.99,0.00,28.3,27.6,00.0,37.1,30.1,05.2,0000.0,0001.86,0002.97,0001.53
2022-02-20 23:14:00,,0815.8,5.00,0.00,28.2,27.6,00.0,37.1,30.1,04.5,0000.0,0001.94,0003.12,0001.60
2022-02-20 23:15:00,,0815.8,5.02,0.00,28.2,27.6,00.0,37.1,30.1,04.3,0000.0,0001.97,0003.09,0001.64
2022-02-20 23:16:00,,0815.8,5.00,0.00,28.3,27.6,00.0,37.1,30.1,04.1,0000.0,0001.99,0003.09,0001.66
2022-02-20 23:17:00,,0815.8,4.99,0.00,28.3,27.6,00.0,37.1,30.1,04.1,0000.0,0002.00,0003.13,0001.66
2022-02-20 23:18:00,,0815.8,5.02,0.00,28.3,27.6,00.0,37.1,30.2,04.2,0000.0,0002.00,0003.14,0001.66
2022-02-20 23:19:00,,0815.8,4.99,0.00,28.3,27.6,00.0,37.2,30.2,04.1,0000.0,0001.87,0002.91,0001.55
2022-02-20 23:20:00,,0815.8,5.00,0.00,28.3,27.7,00.0,37.2,30.2,04.2,0000.0,0001.64,0002.61,0001.33
2022-02-20 23:21:00,,0815.8,4.99,0.00,28.3,27.7,00.0,37.2,30.2,04.3,0000.0,0001.39,0002.36,0001.09
2022-02-20 23:22:00,,0815.8,5.01,0.00,28.3,27.7,00.0,37.2,30.2,04.1,0000.0,0001.19,0002.17,0000.94
2022-02-20 23:23:00,,0815.9,4.99,0.00,28.4,27.7,00.0,37.2,30.2,04.3,0000.0,0000.99,0001.91,0000.77
2022-02-20 23:24:00,,0815.9,5.00,0.00,28.4,27.8,00.0,37.2,30.2,04.2,0000.0,0000.90,0001.84,0000.65
2022-02-20 23:25:00,,0815.9,5.01,0.00,28.4,27.8,00.0,37.2,30.2,04.0,0000.0,0000.87,0001.79,0000.61
2022-02-20 23:26:00,,0816.0,4.99,0.00,28.4,27.8,00.0,37.3,30.3,04.6,0000.0,0000.84,0001.77,0000.59
2022-02-20 23:27:00,,0815.9,4.99,0.00,28.4,27.8,00.0,37.3,30.3,04.2,0000.0,0000.87,0001.81,0000.62
2022-02-20 23:28:00,,0815.9,5.02,0.00,28.4,27.8,00.0,37.3,30.3,04.2,0000.0,0000.88,0001.82,0000.63
2022-02-20 23:29:00,,0815.8,4.99,0.00,28.4,27.8,00.0,37.3,30.3,04.3,0000.0,0000.91,0001.85,0000.66
2022-02-20 23:30:00,,0815.8,4.99,0.00,28.5,27.8,00.0,37.3,30.4,04.2,0000.0,0000.92,0001.86,0000.67
2022-02-20 23:31:00,,0815.8,5.01,0.00,28.5,27.9,00.0,37.3,30.4,04.2,0000.0,0000.92,0001.87,0000.68
2022-02-20 23:32:00,,0815.8,4.99,0.00,28.5,27.9,00.0,37.3,30.4,04.2,0000.0,0000.91,0001.73,0000.69
2022-02-20 23:33:00,,0815.8,5.01,0.00,28.5,27.9,00.0,37.3,30.4,04.2,0000.0,0000.94,0001.68,0000.69
2022-02-20 23:34:00,,0815.8,5.00,0.00,28.5,27.9,00.0,37.4,30.4,04.4,0000.0,0000.92,0001.64,0000.68
2022-02-20 23:35:00,,0815.7,4.98,0.00,28.5,27.9,00.0,37.4,30.4,04.2,0000.0,0000.85,0001.49,0000.65
2022-02-20 23:36:00,,0815.8,5.01,0.00,28.6,27.9,00.0,37.4,30.4,04.2,0000.0,0000.80,0001.36,0000.64
2022-02-20 23:37:00,,0815.8,5.00,0.00,28.6,28.0,00.0,37.4,30.4,04.0,0000.0,0000.75,0001.17,0000.62
2022-02-20 23:38:00,,0815.8,4.99,0.00,28.6,28.0,00.0,37.4,30.4,04.1,0000.0,0000.70,0001.08,0000.57
2022-02-20 23:39:00,,0815.8,5.02,0.00,28.6,28.0,00.0,37.4,30.4,04.4,0000.0,0000.68,0001.01,0000.55
2022-02-20 23:40:00,,0815.7,5.00,0.00,28.6,28.0,00.0,37.4,30.4,04.3,0000.0,0000.66,0000.99,0000.51
2022-02-20 23:41:00,,0815.7,4.99,0.00,28.6,28.0,00.0,37.4,30.4,04.4,0000.0,0000.68,0001.02,0000.51
2022-02-20 23:42:00,,0815.7,5.01,0.00,28.6,28.0,00.0,37.5,30.4,04.4,0000.0,0000.67,0000.98,0000.50
2022-02-20 23:43:00,,0815.7,5.01,0.00,28.6,28.0,00.0,37.5,30.5,04.4,0000.0,0000.68,0001.10,0000.49
2022-02-20 23:44:00,,0815.7,5.00,0.00,28.6,28.0,00.0,37.5,30.4,04.2,0000.0,0000.67,0001.11,0000.49
2022-02-20 23:45:00,,0815.6,4.99,0.00,28.6,28.0,00.0,37.5,30.4,04.4,0000.0,0000.67,0001.10,0000.49
2022-02-20 23:46:00,,0815.6,5.02,0.00,28.6,28.0,00.0,37.5,30.4,04.4,0000.0,0000.68,0001.14,0000.50
2022-02-20 23:47:00,,0815.6,4.99,0.00,28.6,28.0,00.0,37.5,30.5,04.3,0000.0,0000.71,0001.19,0000.50
2022-02-20 23:48:00,,0816.0,5.01,0.00,28.7,28.0,00.0,37.5,30.5,04.4,0000.0,0000.71,0001.21,0000.49
2022-02-20 23:49:00,,0816.0,5.01,0.00,28.7,28.0,00.0,37.5,30.5,04.2,0000.0,0000.72,0001.24,0000.49
2022-02-20 23:50:00,,0816.0,4.99,0.00,28.7,28.0,00.0,37.5,30.4,04.3,0000.0,0000.74,0001.30,0000.49
2022-02-20 23:51:00,,0816.1,5.01,0.00,28.7,28.0,00.0,37.6,30.4,04.4,0000.0,0000.71,0001.22,0000.50
2022-02-20 23:52:00,,0815.7,4.98,0.00,28.6,28.0,00.0,37.6,30.5,04.3,0000.0,0000.68,0001.16,0000.49
2022-02-20 23:53:00,,0815.7,5.02,0.00,28.6,28.0,00.0,37.6,30.5,04.3,0000.0,0000.68,0001.21,0000.49
2022-02-20 23:54:00,,0815.3,4.98,0.00,28.6,28.0,00.0,37.6,30.4,04.2,0000.0,0000.66,0001.08,0000.48
2022-02-20 23:55:00,,0815.3,5.02,0.00,28.6,28.0,00.0,37.6,30.4,04.3,0000.0,0000.65,0001.19,0000.48
2022-02-20 23:56:00,,0815.4,4.98,0.00,28.6,28.0,00.0,37.6,30.4,04.4,0000.0,0000.64,0001.38,0000.47
2022-02-20 23:57:00,,0815.3,5.01,0.00,28.6,27.9,00.0,37.6,30.4,04.4,0000.0,0000.62,0001.35,0000.46
2022-02-20 23:58:00,,0815.3,4.99,0.00,28.6,27.9,00.0,37.6,30.4,04.5,0000.0,0000.59,0001.30,0000.46
2022-02-20 23:59:00,,0815.3,5.02,0.00,28.6,27.9,00.0,37.6,30.4,04.4,0000.0,0000.59,0001.30,0000.46
